Location: Rancho Del Sol Observatory
(38.7214°N, 120.6350°W)
Time: 15:47:37
(UTC-07:00)

Daily predictions for brighter satellites

Satellite Brightness Start Highest point End
(mag) Time Altitude Azimuth Time Altitude Azimuth Time Altitude Azimuth
Cosmos 1727 Rocket 4.1 20:51:23 10° S 20:57:42 87° E 21:04:05 10° N
Cosmos 2208 Rocket 4.3 20:54:18 10° N 20:59:34 56° ENE 21:04:52 10° SSE
Cosmos 2084 4.3 21:00:16 10° SW 21:04:12 51° NW 21:07:59 10° NNE
Okean 3 Rocket 3.6 21:01:15 10° S 21:05:42 67° E 21:10:09 10° NNE
SAR-Lupe-4 4.2 21:03:22 10° SE 21:06:44 40° ENE 21:10:07 10° N
Cosmos 1570 Rocket 4.1 21:03:19 10° NNW 21:08:38 76° ENE 21:13:53 10° SSE
Spot 1 4.1 21:04:54 10° SSE 21:08:56 59° ENE 21:13:08 10° N
Cosmos 1766 Rocket 4.3 21:06:54 10° SSE 21:10:48 34° E 21:14:44 10° NNE
USA 32 4.2 21:06:58 10° S 21:12:12 84° W 21:17:29 10° N
Helios 1A 2.9 21:09:18 10° SSE 21:13:25 79° ENE 21:17:35 10° N
CZ-4B DEB 2.8 21:11:29 10° SSE 21:14:22 52° ENE 21:17:16 10° N
Cosmos 1242 Rocket 2.8 21:12:52 10° N 21:16:32 54° E 21:20:09 10° SSE
Cosmos 1356 Rocket 3.5 21:13:28 10° S 21:17:41 66° E 21:21:58 10° NNE
Cosmos 1674 2.6 21:16:08 10° S 21:19:53 74° E 21:23:37 10° N
Cosmos 2016 Rocket 4.5 21:16:05 10° N 21:21:59 43° ENE 21:27:42 10° SSE
Delta 2 Rocket 4.4 21:16:44 10° SW 21:22:03 46° SSE 21:27:35 10° E
Cosmos 2237 Rocket 4.3 21:17:53 10° NW 21:22:17 24° WSW 21:26:41 10° SSW
Meteor 1-21 Rocket 4.2 21:16:49 10° S 21:22:27 70° E 21:28:00 10° NNE
USA 234 4.0 21:18:53 10° ENE 21:24:26 29° SE 21:29:56 10° S
SAR-Lupe-1 4.1 21:22:47 10° SSE 21:26:21 63° ENE 21:29:54 10° N
Cosmos 468 Rocket 4.4 21:21:34 10° N 21:26:31 46° ENE 21:30:52 13° SE
ERS-1 Rocket 3.3 21:21:54 10° SSE 21:26:45 51° ENE 21:31:37 10° N
RESURS DK-1 3.0 21:23:16 10° N 21:27:15 43° ENE 21:30:33 14° SE
ARGOS 3.9 21:28:10 12° SE 21:32:36 37° ENE 21:37:31 10° N
Cosmos 1603 3.9 21:27:20 10° NNW 21:32:54 56° ENE 21:37:34 14° SE
Cosmos 1908 3.5 21:35:08 10° NNW 21:38:59 70° W 21:42:48 10° S
Cosmos 1939 Rocket 3.9 21:35:32 10° S 21:39:22 45° W 21:43:18 10° NNW
Cosmos 220 Rocket 4.2 21:35:09 10° S 21:39:24 49° ESE 21:43:39 10° NNE
Resurs 01 Rocket 4.2 21:37:42 10° SW 21:40:36 17° W 21:43:31 10° NW
Cosmos 2228 Rocket 4.0 21:37:50 10° NNE 21:42:00 33° ENE 21:44:46 18° SE
Cosmos 371 Rocket 3.9 21:38:12 10° N 21:42:48 43° ENE 21:46:04 18° SE
KORONAS-FOTON 3.8 21:40:27 10° S 21:44:14 82° W 21:48:02 10° N
Cosmos 1943 4.1 21:40:28 10° N 21:45:40 36° ENE 21:49:30 17° ESE
SL-16 R/B 3.5 21:44:02 10° NW 21:49:07 35° WSW 21:54:11 10° SSW
GPS 2-05 Rocket1 3.1 21:46:20 10° WSW 21:49:14 37° S 21:50:27 25° ESE
ERBS 2.9 21:46:36 10° NNW 21:49:53 46° NE 21:51:46 22° ESE
Cosmos 1459 Rocket 4.3 21:51:19 10° NNW 21:57:32 68° W 22:03:38 10° S
Abrixas rocket 2.6 21:57:47 10° NW 22:00:58 54° NNE 22:02:33 26° E
H-2A R/B 2.7 21:58:02 20° SE 22:01:18 43° ENE 22:06:25 10° N
YAOGAN 6 4.3 22:01:32 10° SSW 22:04:46 30° W 22:08:03 10° NNW
Cosmos 2151 3.6 22:04:24 26° SE 22:06:11 38° E 22:10:12 10° NNE
SPOT 5 3.0 22:03:27 22° SSE 22:06:34 67° ENE 22:11:40 10° N
SL-08 RB Rocket 3.9 22:03:59 24° SE 22:06:36 59° ENE 22:11:09 10° N
Lacrosse 5 1.9 22:02:19 10° NW 22:07:21 72° SW 22:10:17 25° SSE
Cosmos 1408 Rocket 4.3 22:04:49 10° SSW 22:09:00 50° W 22:13:13 10° N
Cosmos 1626 3.0 22:12:41 29° ESE 22:13:10 30° E 22:16:28 10° NNE
Cosmos 1356 3.8 22:12:38 37° SE 22:13:28 45° E 22:16:48 10° NNE
Meteor 2-10 4.2 22:08:11 10° N 22:13:51 79° E 22:17:34 23° SSE
Cosmos 1703 4.1 22:14:37 30° ESE 22:15:22 32° E 22:18:57 10° NNE
Cosmos 2123 Rocket 4.0 22:10:58 10° S 22:17:08 85° W 22:23:23 10° N
Cosmos 1726 2.6 22:14:22 10° NNW 22:17:59 56° W 22:20:01 23° SSW
MetOp-B 4.4 22:16:00 18° S 22:19:58 67° WSW 22:25:20 10° NNW
Tiangong 1 1.4 22:17:18 10° WNW 22:20:03 51° NNE 22:20:43 39° ENE
Abrixas 3.5 22:20:59 10° W 22:23:34 41° NNW 22:26:10 10° NE
Cosmos 1354 Rocket 4.1 22:25:52 26° S 22:28:37 56° ESE 22:33:45 10° NNE
Cosmos 1814 Rocket 4.3 22:23:48 10° NNW 22:29:06 66° WSW 22:32:02 26° S
Cosmos 1500 Rocket 3.5 22:27:47 25° S 22:30:20 89° W 22:34:49 10° N
Terra 2.6 22:29:25 30° ESE 22:30:59 38° ENE 22:35:23 10° N
Cosmos 1763 Rocket 3.5 22:29:06 10° NNW 22:34:12 76° WSW 22:36:32 32° S
Cosmos 841 Rocket 3.4 22:29:18 10° NNW 22:34:34 84° ENE 22:36:47 35° SSE
Cosmos 1300 3.5 22:30:54 10° NNW 22:34:35 46° W 22:36:21 26° SSW
Meteor 1-11 4.2 22:31:12 20° S 22:35:24 88° E 22:41:14 10° N
Cosmos 304 Rocket 4.2 22:34:23 10° N 22:39:02 48° ENE 22:40:25 37° ESE
Cosmos 2285 Rocket 4.3 22:33:35 10° N 22:39:48 54° ENE 22:42:35 32° SE
IGS 5A 4.0 22:39:22 38° ESE 22:40:08 42° ENE 22:44:04 10° N
Cosmos 2263 Rocket 2.2 22:35:01 10° SSW 22:40:34 78° WNW 22:46:11 10° NNE
Cosmos 1725 Rocket 4.3 22:35:12 10° NNW 22:41:21 62° W 22:45:33 21° SSW
CARTOSAT-1 4.0 22:40:30 40° ESE 22:41:26 47° ENE 22:45:36 10° N
Cosmos 1805 Rocket 4.0 22:49:44 42° E 22:49:54 42° E 22:54:00 10° NNE
DMSP B5D2-2 4.0 22:45:34 10° NNE 22:50:49 88° ESE 22:53:20 32° SSW
Cosmos 1151 Rocket 3.2 22:47:32 10° NNW 22:51:54 66° W 22:53:14 41° SSW
Meteor 1-27 4.3 22:47:25 10° NNW 22:53:13 78° W 22:55:46 35° S
Cosmos 1633 Rocket 4.4 22:54:01 24° ENE 22:54:01 24° ENE 22:57:05 10° NE
SWAS 4.3 22:55:16 56° S 22:56:05 76° ESE 23:00:24 10° NNE
SPOT 1/Viking Rocket 4.0 22:54:21 31° SSW 22:56:39 55° W 23:01:42 10° NNW
H-2A R/B 2.1 23:01:49 56° ESE 23:02:16 60° ENE 23:06:27 10° N
Delta 2 Rocket 4.0 22:58:59 10° W 23:04:42 66° S 23:06:28 43° ESE
Cosmos 2058 3.8 23:03:11 29° SW 23:04:53 46° W 23:08:58 10° N
Cosmos 1464 Rocket 4.2 23:01:12 10° N 23:07:16 56° E 23:09:02 42° SE
Cosmos 1455 2.1 23:03:31 10° N 23:07:19 83° ENE 23:07:19 83° ENE
USA 234 3.4 23:01:12 10° NE 23:07:44 73° NW 23:14:13 10° WSW
Spot 4 4.3 23:08:10 44° E 23:08:55 48° ENE 23:13:36 10° N
Cosmos 836 Rocket 4.4 23:03:39 10° NNW 23:08:58 85° WSW 23:10:17 53° S
Cosmos 1844 Rocket 3.2 23:13:19 40° ESE 23:13:19 40° ESE 23:18:27 10° NE
CZ-4C R/B 2.0 23:16:27 56° S 23:17:23 68° ESE 23:23:08 10° NE
Cosmos 540 Rocket 3.5 23:22:14 10° NNW 23:27:21 68° WSW 23:28:08 58° SSW
CZ-4B R/B 3.4 23:23:39 10° NNE 23:28:56 77° ESE 23:29:37 65° SSE
Cosmos 1943 4.5 23:24:42 10° NW 23:29:34 30° WSW 23:31:19 25° SW
BREEZE-M DEB 4.4 23:13:32 10° SW 23:32:14 89° SE 23:36:33 10° NE
Cosmos 968 Rocket 3.3 23:32:29 69° SE 23:32:53 72° ESE 23:38:09 10° NNE
Cosmos 1869 3.6 23:33:24 10° N 23:36:46 63° NNW 23:36:46 63° NNW
Cosmos 2242 Rocket 4.2 23:34:46 10° N 23:38:55 47° ENE 23:38:55 47° ENE
H-2A R/B 3.9 23:38:39 18° SW 23:40:51 23° W 23:45:03 10° NW
Tsikada Rocket 4.1 23:41:15 54° SE 23:42:23 64° E 23:48:38 10° NNE
Sich 1 3.1 23:42:48 70° WNW 23:42:48 70° WNW 23:46:52 10° N
CZ-2C R/B 3.5 23:40:53 10° NNE 23:45:10 35° E 23:45:10 35° E
Meteor 2-10 Rocket 4.1 23:43:13 10° N 23:48:28 46° ENE 23:48:56 45° E
Cosmos 1400 Rocket 3.7 23:49:48 44° NE 23:49:48 44° NE 23:52:51 10° NNE
CZ-4C R/B 3.7 23:51:51 72° NW 23:51:51 72° NW 23:55:52 10° NNW
